STARLINK-11177, 60118

Orbit data source: Space-Track

STARLINK-11177, 60118 is a payload satellite owned by SpaceX/Seattle (US) in LEO that was launched on Mon, 24 Jun 2024 UTC via an FALCON 9 launch vehicle from the Air Force Western Test Range (AFWTR). Payload-class satellites include a variety of spacecraft equipped with specific instruments for various scientific and technological missions. These include communications satellites like Starlink; space stations such as the ISS; scientific satellites like the Hubble; Earth observation satellites from companies like Planet Labs, Umbra, and HawkEye 360; GPS; miniature CubeSats for education and research; and military/defense satellites.

Loading next visibility...
Identifier
60118, 2024-118F
Orbit
LEO
Country
Flag of USUS
Related business
Manufacturer
SpaceX/Seattle
Mission
Operational Commercial Communications
Bus & Motor
STARLINK V2MD, Unknown motor
Mass
960 kg wet, ~910 kg dry
Launch date (UTC)
2024-06-24 (1 year ago)
Launch vehicle
FALCON 9
Launch site
Air Force Western Test Range (AFWTR)
Object type
Payload
Rocket body
Debris
Shape & HBR
Box + 2 Pan, 18.1 m
Radar Cross Section
36.964 m², Large (>1 m²)

Expand to show TLE details & history
Last TLE update: 8 hours ago

TLE from 8 hours ago
0 STARLINK-11177
1 60118U 24118F   25354.74455978  .00000191  00000-0  64368-5 0  9993
2 60118  53.1591 250.4637 0001374  77.4234 282.6938 15.69709252 85592
Epoch: 2025-12-20T17:52Z
TLE epoch observation values (Epoch: 2025-12-20T17:52:09.964Z)
Latitude
0.00004°
Longitude
-107.14475°
Altitude
360.441 km
Speed
7.694 km/s
True Right ascension
16h 41m 51s
True Declination
0° 00' 00"
Sunlit
Object was in daylight at epoch
Visualization orbit readout
Latitude
Unknown
Longitude
Unknown
Altitude
Unknown
Speed
Unknown
Apparent Right ascension
Unknown
Apparent Declination
Unknown
Sunlit
N/A
Visualization observer readout
Local Sidereal Time
00:27:50
Azimuth
Unknown
Elevation
Unknown
Doppler factor
Unknown
Orbital elements
Apogee altitude
360.916 km
Perigee altitude
359.064 km
Semi-major axis
6,738.127 km
Eccentricity
0.00014
Inclination
53.1591°
RAAN
250.4637°
Arg. of periapsis
77.4234°
True anomaly
282.67844°
Mean anomaly
282.6938°
Eccentric anomaly
282.68612°
Mean motion
3.92405 °/min
Orbital period
91.74 mins
BSTAR
0.0000064368
Loading maneuver chart data...
Computing Atmospheric mass density...
Loading historical data...
Loading historical data...
Loading historical data...
Loading historical data...
Loading historical data...
Loading historical data...
Loading historical data...

Documentation

Showing up to 5 results
|